HB9KNR Weather Reports


Display with metric or nautical units.
time (UTC)temp
F
wind
direction
speed
MPH
gust
MPH
rain 1hr
in
rain 24hr
in
rain mn
in
humidity
%
barometer
mb
20260904034516 60 0.0 0.0 0.00 0.00 0.00 79 1022.2
20260904033556 60 0.0 0.0 0.00 0.00 0.00 79 1022.1
20260904032515 60 0.0 0.0 0.00 0.00 0.00 78 1022.1
20260904031515 61 0.0 0.0 0.00 0.00 0.00 77 1022.2
20260904030515 61 0.0 0.0 0.00 0.00 0.00 77 1022.2
20260904025515 61 0.0 0.0 0.00 0.00 0.00 76 1022.1
20260904024535 61 0.0 0.0 0.00 0.00 0.00 76 1022.2
20260904023516 62 0.0 0.0 0.00 0.00 0.00 76 1022.5
20260904022516 62 0.0 0.0 0.00 0.00 0.00 76 1022.6
20260904021515 62 0.0 0.0 0.00 0.00 0.00 75 1022.6
20260904020515 63 0.0 0.0 0.00 0.00 0.00 76 1022.7
20260904015536 63 0.0 0.0 0.00 0.00 0.00 76 1022.6
20260904014515 63 0.0 0.0 0.00 0.00 0.00 76 1022.7
20260904013515 63 0.0 0.0 0.00 0.00 0.00 77 1022.8
20260904012516 63 0.0 0.0 0.00 0.00 0.00 76 1023.0
20260904011515 63 0.0 0.0 0.00 0.00 0.00 76 1023.0
20260904010515 63 0.0 0.0 0.00 0.00 0.00 75 1023.0
20260904005515 63 0.0 0.0 0.00 0.00 0.00 75 1023.0
20260904004516 63 0.0 0.0 0.00 0.00 0.00 75 1023.1
20260904003515 63 0.0 0.0 0.00 0.00 0.00 75 1023.0
20260904002515 63 0.0 0.0 0.00 0.00 0.00 75 1023.0
20260904001517 63 0.0 0.0 0.00 0.00 0.00 74 1023.0
20260904000517 63 0.0 0.0 0.00 0.00 0.00 73 1023.0
20260903235518 63 0.0 0.0 0.00 0.00 0.00 72 1023.0
20260903234517 63 0.0 0.0 0.00 0.00 0.00 72 1023.0
20260903233537 63 0.0 0.0 0.00 0.00 0.00 71 1023.0
20260903232517 63 0.0 0.0 0.00 0.00 0.00 70 1023.2
20260903231518 64 0.0 0.0 0.00 0.00 0.00 70 1023.3
20260903230517 64 0.0 0.0 0.00 0.00 0.00 69 1023.2
20260903225517 64 0.0 0.0 0.00 0.00 0.00 69 1023.3
20260903224517 65 0.0 0.0 0.00 0.00 0.00 68 1023.6
20260903223517 65 0.0 0.0 0.00 0.00 0.00 67 1023.5
20260903222517 66 0.0 0.0 0.00 0.00 0.00 67 1023.5
20260903221517 66 0.0 0.0 0.00 0.00 0.00 67 1023.6
20260903215516 66 0.0 0.0 0.00 0.00 0.00 64 1023.6
20260903214516 67 0.0 0.0 0.00 0.00 0.00 63 1023.5
20260903213536 67 0.0 0.0 0.00 0.00 0.00 62 1023.1
20260903212516 67 0.0 0.0 0.00 0.00 0.00 62 1023.1
20260903211516 67 0.0 0.0 0.00 0.00 0.00 61 1023.2
20260903210516 68 0.0 0.0 0.00 0.00 0.00 61 1023.1
20260903205516 68 0.0 0.0 0.00 0.00 0.00 61 1023.1
20260903204516 68 0.0 0.0 0.00 0.00 0.00 61 1023.0
20260903203556 68 0.0 0.0 0.00 0.00 0.00 60 1023.0
20260903202516 69 0.0 0.0 0.00 0.00 0.00 60 1023.0
20260903201516 69 0.0 1.0 0.00 0.00 0.00 60 1023.1
20260903200516 69 0.0 0.0 0.00 0.00 0.00 59 1022.8
20260903195516 69 0.0 0.0 0.00 0.00 0.00 59 1022.7
20260903194516 69 0.0 2.0 0.00 0.00 0.00 59 1022.7
20260903193536 70 0.0 0.0 0.00 0.00 0.00 59 1022.4
20260903192516 70 0.0 0.0 0.00 0.00 0.00 58 1022.2
20260903191516 71 0.0 0.0 0.00 0.00 0.00 57 1022.2
20260903190516 71 0.0 0.0 0.00 0.00 0.00 56 1022.0
20260903185516 71 0.0 0.0 0.00 0.00 0.00 56 1021.9
20260903184516 72 0.0 0.0 0.00 0.00 0.00 55 1022.1
20260903183536 72 0.0 0.0 0.00 0.00 0.00 55 1021.8
20260903182516 73 0.0 0.0 0.00 0.00 0.00 55 1021.7
20260903181516 73 0.0 0.0 0.00 0.00 0.00 54 1021.7
20260903180516 74 0.0 0.0 0.00 0.00 0.00 54 1021.5
20260903175516 75 0.0 0.0 0.00 0.00 0.00 52 1021.3
20260903174516 75 0.0 0.0 0.00 0.00 0.00 51 1021.6
20260903173516 75 0.0 0.0 0.00 0.00 0.00 51 1021.4
20260903172516 76 0.0 0.0 0.00 0.00 0.00 50 1021.4
20260903171536 76 0.0 0.0 0.00 0.00 0.00 49 1021.5
20260903170516 76 0.0 0.0 0.00 0.00 0.00 49 1021.6
20260903165536 77 0.0 0.0 0.00 0.00 0.00 50 1021.5
20260903164515 77 0.0 2.0 0.00 0.00 0.00 50 1021.5
20260903163515 77 0.0 0.0 0.00 0.00 0.00 49 1021.5
20260903162515 77 0.0 2.0 0.00 0.00 0.00 49 1021.5
20260903161516 77 0.0 0.0 0.00 0.00 0.00 49 1021.6
20260903160516 78 0.0 1.0 0.00 0.00 0.00 48 1021.7
20260903155535 78 0.0 1.0 0.00 0.00 0.00 47 1021.7
20260903154515 78 0.0 2.0 0.00 0.00 0.00 46 1021.7
20260903153536 79 0.0 2.0 0.00 0.00 0.00 47 1021.7
20260903152515 79 0.0 1.0 0.00 0.00 0.00 47 1021.7
20260903151636 79 0.0 2.0 0.00 0.00 0.00 47 1021.8
20260903150515 79 0.0 0.0 0.00 0.00 0.00 46 1021.9
20260903145515 78 0.0 0.0 0.00 0.00 0.00 50 1021.9
20260903144515 78 0.0 0.0 0.00 0.00 0.00 46 1021.9
20260903143516 78 0.0 0.0 0.00 0.00 0.00 45 1022.0
20260903142515 79 0.0 3.0 0.00 0.00 0.00 46 1022.2
20260903141515 80 0.0 2.0 0.00 0.00 0.00 43 1022.4
20260903140515 80 0.0 2.0 0.00 0.00 0.00 44 1022.2
20260903135515 81 0.0 1.0 0.00 0.00 0.00 44 1022.3
20260903134515 80 0.0 2.0 0.00 0.00 0.00 46 1022.2
20260903133515 80 0.0 3.0 0.00 0.00 0.00 43 1022.4
20260903132516 80 0.0 3.0 0.00 0.00 0.00 42 1022.5
20260903131555 80 0.0 3.0 0.00 0.00 0.00 44 1022.4
20260903130516 79 0.0 2.0 0.00 0.00 0.00 46 1022.3
20260903125515 79 0.0 4.0 0.00 0.00 0.00 48 1022.4
20260903124515 79 0.0 3.0 0.00 0.00 0.00 47 1022.6
20260903123515 79 0.0 2.0 0.00 0.00 0.00 47 1022.7
20260903122515 79 0.0 1.0 0.00 0.00 0.00 49 1022.6
20260903121515 79 0.0 0.0 0.00 0.00 0.00 51 1022.9
20260903120515 78 0.0 0.0 0.00 0.00 0.00 52 1023.1
20260903115515 79 0.0 5.0 0.00 0.00 0.00 49 1023.2
20260903114515 77 0.0 2.0 0.00 0.00 0.00 53 1023.3
20260903113515 78 0.0 1.0 0.00 0.00 0.00 51 1023.2
20260903112517 78 0.0 3.0 0.00 0.00 0.00 49 1023.3
20260903111517 79 0.0 2.0 0.00 0.00 0.00 51 1023.6
20260903110517 78 0.0 6.0 0.00 0.00 0.00 55 1023.7
20260903105517 77 315 1.0 7.0 0.00 0.00 0.00 55 1023.6
20260903104517 77 0.0 3.0 0.00 0.00 0.00 53 1023.6
20260903103537 77 0.0 6.0 0.00 0.00 0.00 53 1023.8
20260903102517 77 0.0 5.0 0.00 0.00 0.00 55 1023.8
20260903101537 76 0.0 3.0 0.00 0.00 0.00 55 1023.7
20260903100517 75 0.0 1.0 0.00 0.00 0.00 62 1023.9
20260903095517 75 0.0 2.0 0.00 0.00 0.00 63 1023.9
20260903094517 74 0.0 2.0 0.00 0.00 0.00 64 1023.9
20260903093517 73 0.0 0.0 0.00 0.00 0.00 66 1023.9
20260903092517 73 0.0 0.0 0.00 0.00 0.00 68 1024.1
20260903091517 73 0.0 2.0 0.00 0.00 0.00 65 1024.1
20260903090517 72 0.0 2.0 0.00 0.00 0.00 67 1024.0
20260903085517 70 0.0 2.0 0.00 0.00 0.00 70 1023.8
20260903084517 70 0.0 2.0 0.00 0.00 0.00 74 1024.0
20260903083557 70 0.0 3.0 0.00 0.00 0.00 74 1024.2
20260903082517 70 0.0 0.0 0.00 0.00 0.00 74 1024.1
20260903081517 71 0.0 0.0 0.00 0.00 0.00 73 1023.8
20260903080517 70 0.0 0.0 0.00 0.00 0.00 72 1023.7
20260903075517 69 0.0 0.0 0.00 0.00 0.00 76 1023.5
20260903074517 69 0.0 0.0 0.00 0.00 0.00 77 1023.7
20260903073517 68 0.0 0.0 0.00 0.00 0.00 81 1023.8
20260903072517 67 0.0 0.0 0.00 0.00 0.00 84 1024.0
20260903071517 66 0.0 0.0 0.00 0.00 0.00 87 1023.8
20260903070517 65 0.0 0.0 0.00 0.00 0.00 89 1023.9
20260903065537 63 0.0 0.0 0.00 0.00 0.00 90 1024.0
20260903064517 62 0.0 0.0 0.00 0.00 0.00 91 1024.2
20260903063517 60 0.0 0.0 0.00 0.00 0.00 91 1024.0
20260903062517 59 0.0 0.0 0.00 0.00 0.00 91 1023.9
20260903061517 58 0.0 0.0 0.00 0.00 0.00 90 1023.7
20260903060517 58 0.0 0.0 0.00 0.00 0.00 89 1023.6
20260903055537 57 0.0 0.0 0.00 0.00 0.00 89 1023.6
20260903054517 57 0.0 0.0 0.00 0.00 0.00 88 1023.3
20260903053517 57 0.0 0.0 0.00 0.00 0.00 88 1023.4
20260903052517 57 0.0 0.0 0.00 0.00 0.00 87 1023.2
20260903051517 57 0.0 0.0 0.00 0.00 0.00 87 1023.2
20260903050517 57 0.0 0.0 0.00 0.00 0.00 87 1023.3
20260903045517 57 0.0 0.0 0.00 0.00 0.00 87 1023.5
20260903044517 57 0.0 0.0 0.00 0.00 0.00 86 1023.3
20260903043517 57 0.0 0.0 0.00 0.00 0.00 86 1023.0
20260903042517 57 0.0 0.0 0.00 0.00 0.00 85 1022.9
20260903041537 57 0.0 0.0 0.00 0.00 0.00 85 1023.0
20260903040517 57 0.0 0.0 0.00 0.00 0.00 85 1023.2
20260903035557 57 0.0 0.0 0.00 0.00 0.00 84 1023.2